Time,TemperatureF,DewpointF,PressureIn,WindDirection,WindDirectionDegrees,WindSpeedMPH,WindSpeedGustMPH,Humidity,HourlyPrecipIn,Conditions,Clouds,dailyrainin,SoftwareType,DateUTC
2013-07-23 00:01:00,71.8,70.9,29.82,South,169,0.0,0.0,97,0.09,,,0.68,meteobridge,2013-07-23 04:01:00,
2013-07-23 00:02:00,71.8,70.9,29.82,South,169,0.0,0.0,97,0.08,,,0.68,meteobridge,2013-07-23 04:02:00,
2013-07-23 00:03:00,71.8,70.9,29.82,South,169,0.0,0.9,97,0.08,,,0.68,meteobridge,2013-07-23 04:03:00,
2013-07-23 00:06:00,71.8,70.9,29.82,South,169,0.0,0.0,97,0.08,,,0.68,meteobridge,2013-07-23 04:06:00,
2013-07-23 00:08:00,71.8,70.9,29.82,SSE,157,0.0,2.0,97,0.09,,,0.69,meteobridge,2013-07-23 04:08:00,
2013-07-23 00:13:00,71.8,70.9,29.82,SSE,159,0.0,0.9,97,0.08,,,0.69,meteobridge,2013-07-23 04:13:00,
2013-07-23 00:19:00,71.8,70.9,29.81,SSE,159,0.0,0.0,97,0.08,,,0.70,meteobridge,2013-07-23 04:19:00,
2013-07-23 00:25:00,71.8,70.9,29.81,SE,130,0.0,0.9,97,0.08,,,0.71,meteobridge,2013-07-23 04:25:00,
2013-07-23 00:30:00,71.8,70.9,29.80,East,88,0.0,0.0,97,0.07,,,0.71,meteobridge,2013-07-23 04:30:00,
2013-07-23 00:36:00,71.8,70.9,29.80,SE,144,0.0,0.9,97,0.08,,,0.72,meteobridge,2013-07-23 04:36:00,
2013-07-23 00:41:00,71.8,71.2,29.80,South,178,0.0,0.0,98,0.08,,,0.73,meteobridge,2013-07-23 04:41:00,
2013-07-23 00:46:00,71.8,70.9,29.80,SSE,154,2.0,6.0,97,0.07,,,0.73,meteobridge,2013-07-23 04:46:00,
2013-07-23 00:52:00,71.8,70.9,29.79,South,188,0.0,0.0,97,0.07,,,0.74,meteobridge,2013-07-23 04:52:00,
2013-07-23 00:57:00,71.8,70.9,29.79,SSE,155,0.0,2.0,97,0.08,,,0.75,meteobridge,2013-07-23 04:57:00,
2013-07-23 01:03:00,71.8,71.2,29.79,ENE,74,0.0,0.0,98,0.07,,,0.75,meteobridge,2013-07-23 05:03:00,
2013-07-23 01:08:00,71.8,71.2,29.79,ESE,111,0.0,0.0,98,0.06,,,0.75,meteobridge,2013-07-23 05:08:00,
2013-07-23 01:13:00,71.8,71.2,29.79,South,179,0.0,0.0,98,0.06,,,0.76,meteobridge,2013-07-23 05:13:00,
2013-07-23 01:19:00,71.8,71.2,29.79,NW,317,0.0,0.0,98,0.07,,,0.77,meteobridge,2013-07-23 05:19:00,
2013-07-23 01:24:00,71.8,71.2,29.79,SSE,155,0.9,2.0,98,0.06,,,0.77,meteobridge,2013-07-23 05:24:00,
2013-07-23 01:29:00,71.8,71.2,29.78,ESE,107,0.0,6.0,98,0.06,,,0.77,meteobridge,2013-07-23 05:29:00,
2013-07-23 01:34:00,71.8,71.2,29.78,SSE,151,0.0,2.0,98,0.06,,,0.78,meteobridge,2013-07-23 05:34:00,
2013-07-23 01:40:00,71.8,71.2,29.78,SSE,150,0.0,0.0,98,0.05,,,0.78,meteobridge,2013-07-23 05:40:00,
2013-07-23 01:45:00,71.8,71.2,29.78,SSE,151,0.0,0.9,98,0.06,,,0.79,meteobridge,2013-07-23 05:45:00,
2013-07-23 01:50:00,71.8,71.2,29.77,SSW,192,0.0,2.9,98,0.05,,,0.79,meteobridge,2013-07-23 05:50:00,
2013-07-23 01:55:00,71.8,71.2,29.77,SSE,159,0.0,0.0,98,0.05,,,0.79,meteobridge,2013-07-23 05:55:00,
2013-07-23 02:00:00,71.8,71.2,29.76,SSW,210,0.0,0.9,98,0.05,,,0.80,meteobridge,2013-07-23 06:00:00,
2013-07-23 02:05:00,72.0,71.4,29.76,SE,143,0.9,0.9,98,0.05,,,0.80,meteobridge,2013-07-23 06:05:00,
2013-07-23 02:11:00,72.0,71.4,29.76,South,179,0.0,0.0,98,0.04,,,0.80,meteobridge,2013-07-23 06:11:00,
2013-07-23 02:16:00,71.8,71.2,29.76,SSE,167,0.0,2.9,98,0.05,,,0.81,meteobridge,2013-07-23 06:16:00,
2013-07-23 02:21:00,71.8,71.2,29.76,SSE,167,0.0,0.0,98,0.04,,,0.81,meteobridge,2013-07-23 06:21:00,
2013-07-23 02:26:00,71.8,71.2,29.75,South,170,0.0,0.0,98,0.04,,,0.81,meteobridge,2013-07-23 06:26:00,
2013-07-23 02:31:00,71.8,71.2,29.75,South,170,0.9,0.9,98,0.04,,,0.82,meteobridge,2013-07-23 06:31:00,
2013-07-23 02:37:00,71.8,71.2,29.75,NE,55,0.0,2.0,98,0.04,,,0.82,meteobridge,2013-07-23 06:37:00,
2013-07-23 02:42:00,71.8,71.2,29.75,NE,55,0.0,0.0,98,0.05,,,0.83,meteobridge,2013-07-23 06:42:00,
2013-07-23 02:47:00,71.8,71.2,29.75,NE,55,0.0,0.0,98,0.04,,,0.83,meteobridge,2013-07-23 06:47:00,
2013-07-23 02:53:00,71.8,71.2,29.75,NE,55,0.0,0.0,98,0.05,,,0.84,meteobridge,2013-07-23 06:53:00,
2013-07-23 02:58:00,71.8,71.2,29.75,NE,55,0.0,0.0,98,0.05,,,0.85,meteobridge,2013-07-23 06:58:00,
2013-07-23 03:03:00,71.8,71.2,29.74,NE,55,0.0,0.0,98,0.05,,,0.85,meteobridge,2013-07-23 07:03:00,
2013-07-23 03:09:00,71.8,71.2,29.74,North,5,0.9,2.0,98,0.06,,,0.86,meteobridge,2013-07-23 07:09:00,
2013-07-23 03:14:00,71.8,71.2,29.73,SSE,148,0.0,2.9,98,0.06,,,0.87,meteobridge,2013-07-23 07:14:00,
2013-07-23 03:19:00,71.8,71.2,29.73,ENE,71,0.0,0.9,98,0.06,,,0.87,meteobridge,2013-07-23 07:19:00,
2013-07-23 03:24:00,71.8,71.2,29.73,ENE,71,0.0,0.0,98,0.07,,,0.88,meteobridge,2013-07-23 07:24:00,
2013-07-23 03:30:00,71.8,71.2,29.72,ENE,71,0.0,0.0,98,0.07,,,0.89,meteobridge,2013-07-23 07:30:00,
2013-07-23 03:35:00,71.8,71.2,29.72,ENE,71,0.0,0.0,98,0.07,,,0.89,meteobridge,2013-07-23 07:35:00,
2013-07-23 03:40:00,71.8,71.2,29.72,ENE,71,0.0,0.0,98,0.07,,,0.90,meteobridge,2013-07-23 07:40:00,
2013-07-23 03:45:00,71.8,71.2,29.72,NE,40,0.0,2.0,98,0.07,,,0.90,meteobridge,2013-07-23 07:45:00,
2013-07-23 03:51:00,71.8,71.2,29.72,NE,40,0.0,0.9,98,0.07,,,0.91,meteobridge,2013-07-23 07:51:00,
2013-07-23 03:56:00,71.8,71.2,29.72,NE,40,0.0,0.0,98,0.06,,,0.91,meteobridge,2013-07-23 07:56:00,
2013-07-23 04:01:00,71.8,71.2,29.72,NE,40,0.0,0.9,98,0.07,,,0.92,meteobridge,2013-07-23 08:01:00,
2013-07-23 04:06:00,71.8,71.2,29.72,NE,40,0.0,0.0,98,0.07,,,0.93,meteobridge,2013-07-23 08:06:00,
2013-07-23 04:11:00,71.8,71.4,29.72,NE,40,0.0,0.0,99,0.06,,,0.93,meteobridge,2013-07-23 08:11:00,
2013-07-23 04:17:00,71.8,71.4,29.72,NE,40,0.0,0.0,99,0.06,,,0.93,meteobridge,2013-07-23 08:17:00,
2013-07-23 04:22:00,71.8,71.4,29.71,SSE,153,0.0,0.0,99,0.06,,,0.94,meteobridge,2013-07-23 08:22:00,
2013-07-23 04:27:00,71.8,71.4,29.71,South,183,0.0,0.0,99,0.06,,,0.95,meteobridge,2013-07-23 08:27:00,
2013-07-23 04:33:00,71.8,71.2,29.71,South,183,0.0,0.0,98,0.06,,,0.95,meteobridge,2013-07-23 08:33:00,
2013-07-23 04:38:00,71.8,71.4,29.71,South,183,0.0,0.0,99,0.05,,,0.95,meteobridge,2013-07-23 08:38:00,
2013-07-23 04:43:00,71.8,71.2,29.71,South,183,0.0,0.0,98,0.06,,,0.96,meteobridge,2013-07-23 08:43:00,
2013-07-23 04:48:00,71.8,71.2,29.70,South,183,0.0,0.0,98,0.05,,,0.96,meteobridge,2013-07-23 08:48:00,
2013-07-23 04:54:00,71.8,71.2,29.71,South,183,0.0,0.0,98,0.06,,,0.97,meteobridge,2013-07-23 08:54:00,
2013-07-23 04:59:00,71.8,71.2,29.70,South,183,0.0,0.0,98,0.05,,,0.97,meteobridge,2013-07-23 08:59:00,
2013-07-23 05:04:00,71.8,71.2,29.70,South,183,0.0,0.0,98,0.04,,,0.97,meteobridge,2013-07-23 09:04:00,
2013-07-23 05:10:00,71.8,71.2,29.69,South,183,0.0,0.0,98,0.05,,,0.98,meteobridge,2013-07-23 09:10:00,
2013-07-23 05:15:00,71.8,71.2,29.68,South,183,0.0,0.0,98,0.05,,,0.98,meteobridge,2013-07-23 09:15:00,
2013-07-23 05:20:00,71.8,71.2,29.69,South,183,0.0,0.0,98,0.04,,,0.98,meteobridge,2013-07-23 09:20:00,
2013-07-23 05:25:00,71.8,71.4,29.69,South,183,0.0,0.0,99,0.05,,,0.99,meteobridge,2013-07-23 09:25:00,
2013-07-23 05:30:00,71.8,71.4,29.69,South,183,0.0,0.0,99,0.04,,,0.99,meteobridge,2013-07-23 09:30:00,
2013-07-23 05:36:00,71.8,71.4,29.69,South,183,0.0,0.0,99,0.04,,,0.99,meteobridge,2013-07-23 09:36:00,
2013-07-23 05:41:00,71.8,71.4,29.69,South,183,0.0,0.0,99,0.04,,,1.00,meteobridge,2013-07-23 09:41:00,
2013-07-23 05:46:00,71.8,71.4,29.69,South,183,0.0,0.0,99,0.04,,,1.00,meteobridge,2013-07-23 09:46:00,
2013-07-23 05:52:00,71.8,71.4,29.69,South,183,0.0,0.0,99,0.03,,,1.00,meteobridge,2013-07-23 09:52:00,
2013-07-23 05:57:00,71.8,71.4,29.69,South,183,0.0,0.0,99,0.04,,,1.01,meteobridge,2013-07-23 09:57:00,
2013-07-23 06:02:00,71.8,71.4,29.68,South,183,0.0,0.0,99,0.04,,,1.01,meteobridge,2013-07-23 10:02:00,
2013-07-23 06:08:00,71.8,71.4,29.68,South,172,2.0,2.0,99,0.03,,,1.01,meteobridge,2013-07-23 10:08:00,
2013-07-23 06:13:00,72.0,71.6,29.68,South,177,0.9,0.9,99,0.03,,,1.01,meteobridge,2013-07-23 10:13:00,
2013-07-23 06:18:00,72.1,71.8,29.68,South,170,0.0,0.9,99,0.04,,,1.02,meteobridge,2013-07-23 10:18:00,
2013-07-23 06:23:00,72.1,71.8,29.67,South,170,0.0,0.0,99,0.03,,,1.02,meteobridge,2013-07-23 10:23:00,
2013-07-23 06:30:00,72.1,71.8,29.67,South,171,0.0,0.0,99,0.03,,,1.02,meteobridge,2013-07-23 10:30:00,
2013-07-23 06:35:00,72.1,71.8,29.68,South,169,0.0,0.9,99,0.04,,,1.03,meteobridge,2013-07-23 10:35:00,
2013-07-23 06:40:00,72.3,72.0,29.67,South,189,0.0,4.0,99,0.03,,,1.03,meteobridge,2013-07-23 10:40:00,
2013-07-23 06:45:00,72.5,72.1,29.67,South,187,0.0,0.0,99,0.03,,,1.03,meteobridge,2013-07-23 10:45:00,
2013-07-23 06:50:00,72.7,72.3,29.67,SSE,150,0.9,0.9,99,0.03,,,1.03,meteobridge,2013-07-23 10:50:00,
2013-07-23 06:55:00,72.7,72.3,29.66,South,185,0.9,4.0,99,0.02,,,1.03,meteobridge,2013-07-23 10:55:00,
2013-07-23 07:01:00,72.9,72.5,29.66,SSE,163,2.0,4.0,99,0.03,,,1.04,meteobridge,2013-07-23 11:01:00,
2013-07-23 07:06:00,72.9,72.5,29.66,South,169,0.0,6.9,99,0.03,,,1.04,meteobridge,2013-07-23 11:06:00,
2013-07-23 07:11:00,73.0,72.7,29.66,SSE,159,2.0,6.0,99,0.03,,,1.04,meteobridge,2013-07-23 11:11:00,
2013-07-23 07:16:00,73.0,72.7,29.66,South,169,0.9,2.9,99,0.02,,,1.04,meteobridge,2013-07-23 11:16:00,
2013-07-23 07:21:00,73.2,72.9,29.66,SSE,157,2.9,2.9,99,0.03,,,1.05,meteobridge,2013-07-23 11:21:00,
2013-07-23 07:27:00,73.6,73.2,29.66,SSE,156,0.0,2.9,99,0.03,,,1.05,meteobridge,2013-07-23 11:27:00,
2013-07-23 07:32:00,73.8,73.4,29.66,South,173,0.0,4.0,99,0.02,,,1.05,meteobridge,2013-07-23 11:32:00,
2013-07-23 07:38:00,73.8,73.4,29.66,WNW,292,0.0,2.0,99,0.02,,,1.05,meteobridge,2013-07-23 11:38:00,
2013-07-23 07:43:00,73.9,73.6,29.66,SSE,157,2.9,4.0,99,0.02,,,1.05,meteobridge,2013-07-23 11:43:00,
2013-07-23 07:48:00,73.9,73.6,29.66,SE,146,0.0,4.0,99,0.03,,,1.06,meteobridge,2013-07-23 11:48:00,
2013-07-23 07:53:00,73.8,73.4,29.66,SW,226,0.0,2.0,99,0.03,,,1.06,meteobridge,2013-07-23 11:53:00,
2013-07-23 07:58:00,73.8,73.4,29.66,WSW,244,0.0,0.0,99,0.02,,,1.06,meteobridge,2013-07-23 11:58:00,
2013-07-23 08:04:00,73.8,73.4,29.65,SE,141,0.0,2.9,99,0.02,,,1.06,meteobridge,2013-07-23 12:04:00,
2013-07-23 08:09:00,73.8,73.4,29.66,WSW,256,0.0,2.0,99,0.02,,,1.06,meteobridge,2013-07-23 12:09:00,
2013-07-23 08:14:00,73.8,73.4,29.65,South,173,0.0,2.9,99,0.03,,,1.07,meteobridge,2013-07-23 12:14:00,
2013-07-23 08:19:00,73.8,73.4,29.65,SW,217,0.0,2.0,99,0.02,,,1.07,meteobridge,2013-07-23 12:19:00,
2013-07-23 08:25:00,73.8,73.4,29.66,West,264,0.0,0.9,99,0.02,,,1.07,meteobridge,2013-07-23 12:25:00,
2013-07-23 08:30:00,73.9,73.6,29.66,West,261,0.0,0.9,99,0.02,,,1.07,meteobridge,2013-07-23 12:30:00,
2013-07-23 08:35:00,73.8,73.4,29.65,WNW,290,0.0,0.0,99,0.02,,,1.07,meteobridge,2013-07-23 12:35:00,
2013-07-23 08:40:00,73.8,73.2,29.65,West,276,0.0,2.0,98,0.02,,,1.07,meteobridge,2013-07-23 12:40:00,
2013-07-23 08:45:00,73.9,73.4,29.65,SW,223,0.9,2.9,98,0.01,,,1.07,meteobridge,2013-07-23 12:45:00,
2013-07-23 08:51:00,73.8,73.2,29.65,SW,225,0.0,6.0,98,0.02,,,1.08,meteobridge,2013-07-23 12:51:00,
2013-07-23 08:56:00,73.9,73.4,29.64,NNW,342,2.0,2.9,98,0.02,,,1.08,meteobridge,2013-07-23 12:56:00,
2013-07-23 09:01:00,73.9,73.0,29.64,SSE,162,0.0,2.0,97,0.02,,,1.08,meteobridge,2013-07-23 13:01:00,
2013-07-23 09:06:00,74.1,73.2,29.64,WSW,242,2.0,4.0,97,0.02,,,1.08,meteobridge,2013-07-23 13:06:00,
2013-07-23 09:11:00,74.1,72.9,29.64,WNW,288,0.9,2.0,96,0.01,,,1.08,meteobridge,2013-07-23 13:11:00,
2013-07-23 09:17:00,74.3,73.4,29.64,SW,221,0.0,0.9,97,0.01,,,1.08,meteobridge,2013-07-23 13:17:00,
2013-07-23 09:22:00,74.7,73.8,29.64,SSE,156,0.9,2.0,97,0.02,,,1.09,meteobridge,2013-07-23 13:22:00,
2013-07-23 09:27:00,74.8,73.6,29.63,SW,234,0.9,2.9,96,0.02,,,1.09,meteobridge,2013-07-23 13:27:00,
2013-07-23 09:33:00,74.8,73.2,29.63,West,269,0.9,0.9,95,0.02,,,1.09,meteobridge,2013-07-23 13:33:00,
2013-07-23 09:38:00,74.8,73.2,29.63,WSW,243,0.0,2.0,95,0.02,,,1.09,meteobridge,2013-07-23 13:38:00,
2013-07-23 09:43:00,74.8,73.6,29.63,WSW,246,0.0,2.0,96,0.02,,,1.09,meteobridge,2013-07-23 13:43:00,
2013-07-23 09:48:00,74.8,73.2,29.63,West,277,0.9,2.9,95,0.02,,,1.09,meteobridge,2013-07-23 13:48:00,
2013-07-23 09:54:00,74.7,73.2,29.63,West,267,2.0,2.9,95,0.01,,,1.09,meteobridge,2013-07-23 13:54:00,
2013-07-23 09:59:00,74.7,73.2,29.64,WSW,237,0.9,2.0,95,0.01,,,1.09,meteobridge,2013-07-23 13:59:00,
2013-07-23 10:04:00,74.7,73.2,29.63,West,280,0.0,2.0,95,0.01,,,1.09,meteobridge,2013-07-23 14:04:00,
2013-07-23 10:09:00,74.8,73.6,29.63,West,265,0.9,2.9,96,0.02,,,1.10,meteobridge,2013-07-23 14:09:00,
2013-07-23 10:15:00,75.0,73.8,29.63,WSW,249,0.0,2.0,96,0.02,,,1.10,meteobridge,2013-07-23 14:15:00,
2013-07-23 10:20:00,75.4,73.8,29.63,WSW,244,0.9,2.0,95,0.01,,,1.10,meteobridge,2013-07-23 14:20:00,
2013-07-23 10:26:00,75.7,73.6,29.63,West,261,0.0,2.9,93,0.01,,,1.10,meteobridge,2013-07-23 14:26:00,
2013-07-23 10:31:00,76.1,73.9,29.63,SSE,159,0.0,2.9,93,0.01,,,1.10,meteobridge,2013-07-23 14:31:00,
2013-07-23 10:37:00,76.3,74.1,29.63,WSW,254,0.0,4.0,93,0.01,,,1.10,meteobridge,2013-07-23 14:37:00,
2013-07-23 10:42:00,76.5,74.7,29.62,West,279,2.9,4.0,94,0.02,,,1.11,meteobridge,2013-07-23 14:42:00,
2013-07-23 10:48:00,76.6,73.4,29.63,WNW,298,0.9,2.0,90,0.02,,,1.11,meteobridge,2013-07-23 14:48:00,
2013-07-23 10:53:00,76.8,73.6,29.62,WNW,286,0.9,0.9,90,0.02,,,1.11,meteobridge,2013-07-23 14:53:00,
2013-07-23 10:58:00,76.8,73.9,29.62,West,267,0.0,0.9,91,0.02,,,1.11,meteobridge,2013-07-23 14:58:00,
2013-07-23 11:03:00,77.0,73.8,29.62,West,267,0.0,4.9,90,0.02,,,1.11,meteobridge,2013-07-23 15:03:00,
2013-07-23 11:08:00,77.4,74.5,29.62,WNW,294,0.9,0.9,91,0.01,,,1.11,meteobridge,2013-07-23 15:08:00,
2013-07-23 11:14:00,77.7,75.2,29.62,WSW,247,0.9,2.0,92,0.01,,,1.11,meteobridge,2013-07-23 15:14:00,
2013-07-23 11:19:00,78.4,75.6,29.62,WNW,294,4.0,4.0,91,0.01,,,1.11,meteobridge,2013-07-23 15:19:00,
2013-07-23 11:24:00,78.6,74.8,29.62,West,265,0.0,2.0,88,0.01,,,1.11,meteobridge,2013-07-23 15:24:00,
2013-07-23 11:30:00,78.6,74.1,29.62,WNW,284,0.0,2.0,86,0.02,,,1.12,meteobridge,2013-07-23 15:30:00,
2013-07-23 11:35:00,78.4,74.7,29.62,WNW,286,0.0,2.0,88,0.02,,,1.12,meteobridge,2013-07-23 15:35:00,
2013-07-23 11:40:00,78.4,74.3,29.62,NW,323,0.9,2.0,87,0.01,,,1.12,meteobridge,2013-07-23 15:40:00,
2013-07-23 11:46:00,78.4,73.6,29.62,NNW,327,0.0,0.9,85,0.01,,,1.12,meteobridge,2013-07-23 15:46:00,
2013-07-23 11:52:00,78.3,74.1,29.62,WNW,288,0.0,0.0,87,0.01,,,1.12,meteobridge,2013-07-23 15:52:00,
2013-07-23 11:57:00,78.3,73.8,29.62,West,271,0.0,2.0,86,0.01,,,1.12,meteobridge,2013-07-23 15:57:00,
2013-07-23 12:02:00,78.3,73.4,29.62,WSW,237,0.0,4.9,85,0.02,,,1.13,meteobridge,2013-07-23 16:02:00,
2013-07-23 12:07:00,78.4,73.9,29.62,WSW,250,0.9,4.0,86,0.02,,,1.13,meteobridge,2013-07-23 16:07:00,
2013-07-23 12:13:00,78.4,74.3,29.62,West,267,4.0,6.9,87,0.02,,,1.13,meteobridge,2013-07-23 16:13:00,
2013-07-23 12:18:00,78.6,74.5,29.62,WNW,293,0.0,2.0,87,0.02,,,1.13,meteobridge,2013-07-23 16:18:00,
2013-07-23 12:23:00,79.0,74.8,29.62,SSE,159,0.9,6.0,87,0.02,,,1.13,meteobridge,2013-07-23 16:23:00,
2013-07-23 12:29:00,79.2,74.3,29.62,South,174,0.9,0.9,85,0.01,,,1.13,meteobridge,2013-07-23 16:29:00,
2013-07-23 12:34:00,79.3,75.7,29.62,SW,235,0.0,2.0,89,0.01,,,1.13,meteobridge,2013-07-23 16:34:00,
2013-07-23 12:39:00,79.9,75.7,29.61,SW,221,0.9,4.9,87,0.01,,,1.13,meteobridge,2013-07-23 16:39:00,
2013-07-23 12:44:00,80.2,75.4,29.61,SW,224,0.9,2.9,85,0.01,,,1.13,meteobridge,2013-07-23 16:44:00,
2013-07-23 12:50:00,80.1,74.1,29.61,SSE,166,0.9,4.0,82,0.02,,,1.14,meteobridge,2013-07-23 16:50:00,
2013-07-23 12:55:00,80.1,75.2,29.61,West,261,2.0,2.9,85,0.02,,,1.14,meteobridge,2013-07-23 16:55:00,
2013-07-23 13:00:00,80.2,75.0,29.61,NNE,26,2.0,2.9,84,0.01,,,1.14,meteobridge,2013-07-23 17:00:00,
2013-07-23 13:05:00,80.4,74.8,29.60,NW,307,0.9,0.9,83,0.01,,,1.14,meteobridge,2013-07-23 17:05:00,
2013-07-23 13:10:00,80.4,74.5,29.60,West,279,0.0,2.0,82,0.01,,,1.14,meteobridge,2013-07-23 17:10:00,
2013-07-23 13:16:00,80.4,73.8,29.60,WNW,284,2.0,2.9,80,0.01,,,1.14,meteobridge,2013-07-23 17:16:00,
2013-07-23 13:21:00,80.4,74.1,29.60,SE,146,0.0,2.9,81,0.01,,,1.14,meteobridge,2013-07-23 17:21:00,
2013-07-23 13:26:00,81.0,75.7,29.60,West,271,2.0,2.9,84,0.02,,,1.15,meteobridge,2013-07-23 17:26:00,
2013-07-23 13:32:00,81.3,73.4,29.60,NW,308,0.9,2.0,77,0.02,,,1.15,meteobridge,2013-07-23 17:32:00,
2013-07-23 13:37:00,81.7,73.8,29.59,WSW,257,0.9,4.0,77,0.02,,,1.15,meteobridge,2013-07-23 17:37:00,
2013-07-23 13:42:00,82.0,74.1,29.59,NW,310,0.9,0.9,77,0.02,,,1.15,meteobridge,2013-07-23 17:42:00,
2013-07-23 13:47:00,82.6,74.3,29.59,South,178,0.0,4.0,76,0.02,,,1.15,meteobridge,2013-07-23 17:47:00,
2013-07-23 13:53:00,82.9,75.0,29.59,WSW,248,0.9,2.9,77,0.01,,,1.15,meteobridge,2013-07-23 17:53:00,
2013-07-23 13:58:00,83.1,74.8,29.58,SW,236,0.0,2.0,76,0.01,,,1.15,meteobridge,2013-07-23 17:58:00,
2013-07-23 14:03:00,83.5,75.0,29.58,SSE,153,0.0,2.9,76,0.01,,,1.15,meteobridge,2013-07-23 18:03:00,
2013-07-23 14:09:00,83.8,76.6,29.58,SE,130,2.0,2.0,79,0.02,,,1.16,meteobridge,2013-07-23 18:09:00,
2013-07-23 14:14:00,84.4,76.5,29.57,SSW,213,0.0,2.0,77,0.02,,,1.16,meteobridge,2013-07-23 18:14:00,
2013-07-23 14:19:00,84.4,74.3,29.58,SSW,197,0.9,2.9,72,0.02,,,1.16,meteobridge,2013-07-23 18:19:00,
2013-07-23 14:25:00,84.0,74.8,29.58,South,178,0.9,2.0,74,0.01,,,1.16,meteobridge,2013-07-23 18:25:00,
2013-07-23 14:30:00,84.2,77.0,29.57,North,355,0.9,4.0,79,0.01,,,1.16,meteobridge,2013-07-23 18:30:00,
2013-07-23 14:35:00,84.7,74.7,29.57,SW,226,2.0,2.0,72,0.01,,,1.16,meteobridge,2013-07-23 18:35:00,
2013-07-23 14:40:00,84.9,74.5,29.57,SW,220,0.9,2.0,71,0.01,,,1.16,meteobridge,2013-07-23 18:40:00,
2013-07-23 14:46:00,85.3,74.8,29.57,North,5,6.0,6.9,71,0.01,,,1.16,meteobridge,2013-07-23 18:46:00,
2013-07-23 14:51:00,85.1,73.8,29.58,WSW,257,0.0,4.0,69,0.02,,,1.17,meteobridge,2013-07-23 18:51:00,
2013-07-23 14:56:00,84.4,72.7,29.59,West,269,4.0,6.0,68,0.02,,,1.17,meteobridge,2013-07-23 18:56:00,
2013-07-23 15:02:00,82.2,71.4,29.59,North,5,2.0,13.0,70,0.02,,,1.17,meteobridge,2013-07-23 19:02:00,
2013-07-23 15:07:00,80.2,71.2,29.59,North,355,0.0,4.9,74,0.01,,,1.17,meteobridge,2013-07-23 19:07:00,
2013-07-23 15:12:00,78.8,72.5,29.58,WNW,296,2.0,2.0,81,0.01,,,1.17,meteobridge,2013-07-23 19:12:00,
2013-07-23 15:18:00,78.1,74.5,29.58,WNW,296,0.0,0.0,89,0.01,,,1.17,meteobridge,2013-07-23 19:18:00,
2013-07-23 15:24:00,78.1,75.2,29.57,SSW,206,0.0,0.9,91,0.01,,,1.17,meteobridge,2013-07-23 19:24:00,
2013-07-23 15:29:00,78.1,74.5,29.58,WNW,296,0.9,2.0,89,0.01,,,1.17,meteobridge,2013-07-23 19:29:00,
2013-07-23 15:34:00,78.3,74.7,29.57,WNW,287,0.9,4.0,89,0.01,,,1.17,meteobridge,2013-07-23 19:34:00,
2013-07-23 15:40:00,78.1,74.5,29.58,WSW,245,2.0,4.0,89,0.01,,,1.17,meteobridge,2013-07-23 19:40:00,
2013-07-23 15:45:00,77.7,72.9,29.59,WNW,301,4.9,15.0,85,0.01,,,1.17,meteobridge,2013-07-23 19:45:00,
2013-07-23 15:50:00,76.1,70.2,29.60,NW,307,11.0,13.0,82,0.01,,,1.18,meteobridge,2013-07-23 19:50:00,
2013-07-23 15:56:00,73.2,68.4,29.59,WSW,247,0.9,4.9,85,0.06,,,1.23,meteobridge,2013-07-23 19:56:00,
2013-07-23 16:01:00,72.1,69.1,29.59,NNW,348,0.0,2.0,90,0.09,,,1.26,meteobridge,2013-07-23 20:01:00,
2013-07-23 16:06:00,71.8,69.6,29.58,WSW,238,0.9,4.0,93,0.12,,,1.29,meteobridge,2013-07-23 20:06:00,
2013-07-23 16:11:00,71.8,70.3,29.57,South,174,0.0,4.0,95,0.13,,,1.30,meteobridge,2013-07-23 20:11:00,
2013-07-23 16:17:00,71.8,70.5,29.57,South,174,0.0,0.0,96,0.15,,,1.32,meteobridge,2013-07-23 20:17:00,
2013-07-23 16:22:00,72.1,71.2,29.58,SSW,196,0.0,0.9,97,0.16,,,1.33,meteobridge,2013-07-23 20:22:00,
2013-07-23 16:27:00,72.5,72.0,29.58,SSW,210,0.0,0.9,98,0.17,,,1.34,meteobridge,2013-07-23 20:27:00,
2013-07-23 16:32:00,72.9,72.0,29.58,SSW,210,0.0,0.9,97,0.18,,,1.35,meteobridge,2013-07-23 20:32:00,
2013-07-23 16:38:00,72.9,72.0,29.58,SSW,210,0.0,0.0,97,0.20,,,1.37,meteobridge,2013-07-23 20:38:00,
2013-07-23 16:43:00,73.0,72.5,29.58,NE,39,2.0,6.9,98,0.20,,,1.37,meteobridge,2013-07-23 20:43:00,
2013-07-23 16:49:00,73.4,72.5,29.58,NE,39,0.9,0.9,97,0.20,,,1.38,meteobridge,2013-07-23 20:49:00,
2013-07-23 16:54:00,73.9,73.4,29.57,NE,39,0.0,0.0,98,0.16,,,1.39,meteobridge,2013-07-23 20:54:00,
2013-07-23 17:00:00,74.1,72.9,29.57,SSE,161,0.0,0.9,96,0.13,,,1.39,meteobridge,2013-07-23 21:00:00,
2013-07-23 17:05:00,74.7,73.4,29.57,SSE,160,0.0,0.0,96,0.10,,,1.39,meteobridge,2013-07-23 21:05:00,
2013-07-23 17:11:00,75.0,73.8,29.57,SSE,160,0.0,0.0,96,0.09,,,1.40,meteobridge,2013-07-23 21:11:00,
2013-07-23 17:16:00,75.6,74.3,29.58,SSE,160,0.0,0.0,96,0.09,,,1.41,meteobridge,2013-07-23 21:16:00,
2013-07-23 17:21:00,75.7,74.1,29.57,ENE,59,0.0,0.0,95,0.08,,,1.41,meteobridge,2013-07-23 21:21:00,
2013-07-23 17:26:00,75.9,74.3,29.57,ENE,59,0.0,0.9,95,0.07,,,1.42,meteobridge,2013-07-23 21:26:00,
2013-07-23 17:31:00,75.9,74.3,29.57,NE,35,0.9,0.9,95,0.07,,,1.42,meteobridge,2013-07-23 21:31:00,
2013-07-23 17:36:00,76.1,73.9,29.57,South,170,0.0,2.0,93,0.07,,,1.43,meteobridge,2013-07-23 21:36:00,
2013-07-23 17:42:00,76.3,74.5,29.57,South,170,0.9,0.9,94,0.06,,,1.43,meteobridge,2013-07-23 21:42:00,
2013-07-23 17:47:00,76.3,74.1,29.57,South,171,0.0,0.9,93,0.05,,,1.43,meteobridge,2013-07-23 21:47:00,
2013-07-23 17:52:00,76.5,74.7,29.56,South,171,0.0,2.0,94,0.05,,,1.44,meteobridge,2013-07-23 21:52:00,
2013-07-23 17:58:00,76.3,74.5,29.56,South,171,0.0,0.0,94,0.05,,,1.44,meteobridge,2013-07-23 21:58:00,
2013-07-23 18:03:00,76.3,74.7,29.56,South,175,0.9,0.9,95,0.06,,,1.45,meteobridge,2013-07-23 22:03:00,
2013-07-23 18:08:00,76.6,75.4,29.55,SW,217,0.9,2.0,96,0.05,,,1.45,meteobridge,2013-07-23 22:08:00,
2013-07-23 18:14:00,76.6,74.1,29.55,North,349,0.0,4.9,92,0.04,,,1.45,meteobridge,2013-07-23 22:14:00,
2013-07-23 18:19:00,76.5,73.2,29.55,West,264,2.0,2.9,90,0.05,,,1.46,meteobridge,2013-07-23 22:19:00,
2013-07-23 18:24:00,75.9,73.0,29.55,West,277,0.9,2.9,91,0.04,,,1.46,meteobridge,2013-07-23 22:24:00,
2013-07-23 18:29:00,75.6,72.7,29.55,South,182,0.0,0.9,91,0.04,,,1.46,meteobridge,2013-07-23 22:29:00,
2013-07-23 18:34:00,75.2,72.3,29.56,South,182,0.0,0.0,91,0.03,,,1.46,meteobridge,2013-07-23 22:34:00,
2013-07-23 18:39:00,74.8,72.7,29.57,South,182,0.0,0.0,93,0.04,,,1.47,meteobridge,2013-07-23 22:39:00,
2013-07-23 18:44:00,74.8,73.0,29.57,South,182,0.0,0.0,94,0.04,,,1.47,meteobridge,2013-07-23 22:44:00,
2013-07-23 18:50:00,74.8,73.0,29.58,South,182,0.0,0.0,94,0.03,,,1.47,meteobridge,2013-07-23 22:50:00,
2013-07-23 18:55:00,74.8,73.2,29.58,South,182,0.0,0.0,95,0.03,,,1.47,meteobridge,2013-07-23 22:55:00,
2013-07-23 19:00:00,74.8,73.2,29.58,South,182,0.0,0.0,95,0.04,,,1.49,meteobridge,2013-07-23 23:00:00,
2013-07-23 19:05:00,74.8,73.0,29.58,South,182,0.0,0.0,94,0.09,,,1.54,meteobridge,2013-07-23 23:05:00,
2013-07-23 19:10:00,74.8,73.2,29.58,South,182,0.0,0.0,95,0.09,,,1.54,meteobridge,2013-07-23 23:10:00,
2013-07-23 19:16:00,74.7,73.2,29.58,South,182,0.0,0.0,95,0.09,,,1.54,meteobridge,2013-07-23 23:16:00,
2013-07-23 19:21:00,74.7,73.2,29.58,South,182,0.0,0.0,95,0.08,,,1.54,meteobridge,2013-07-23 23:21:00,
2013-07-23 19:26:00,74.7,73.2,29.59,SSE,152,0.0,0.9,95,0.08,,,1.54,meteobridge,2013-07-23 23:26:00,
2013-07-23 19:31:00,74.5,72.7,29.59,SSE,152,0.0,0.0,94,0.08,,,1.54,meteobridge,2013-07-23 23:31:00,
2013-07-23 19:36:00,74.5,73.0,29.59,SSE,152,0.0,0.9,95,0.07,,,1.54,meteobridge,2013-07-23 23:36:00,
2013-07-23 19:42:00,74.5,73.0,29.59,SSE,152,0.0,0.0,95,0.07,,,1.54,meteobridge,2013-07-23 23:42:00,
2013-07-23 19:47:00,74.3,72.9,29.59,SSE,152,0.0,0.0,95,0.07,,,1.54,meteobridge,2013-07-23 23:47:00,
2013-07-23 19:52:00,74.1,72.9,29.59,SSE,152,0.0,0.0,96,0.07,,,1.54,meteobridge,2013-07-23 23:52:00,
2013-07-23 19:57:00,74.1,72.9,29.59,South,180,0.0,2.0,96,0.07,,,1.54,meteobridge,2013-07-23 23:57:00,
2013-07-23 20:02:00,74.1,72.9,29.59,SSW,192,0.9,2.9,96,0.00,,,0.00,meteobridge,2013-07-24 00:02:00,
2013-07-23 20:07:00,74.1,72.9,29.59,South,186,0.0,0.0,96,0.00,,,0.00,meteobridge,2013-07-24 00:07:00,
2013-07-23 20:12:00,73.9,72.7,29.59,South,186,0.0,0.0,96,0.01,,,0.01,meteobridge,2013-07-24 00:12:00,
2013-07-23 20:18:00,73.8,72.5,29.59,South,186,0.9,2.0,96,0.01,,,0.01,meteobridge,2013-07-24 00:18:00,
2013-07-23 20:24:00,73.6,72.1,29.59,South,186,0.0,0.0,95,0.01,,,0.01,meteobridge,2013-07-24 00:24:00,
2013-07-23 20:29:00,73.6,72.1,29.59,South,186,0.0,0.0,95,0.01,,,0.01,meteobridge,2013-07-24 00:29:00,
2013-07-23 20:34:00,73.2,72.0,29.59,South,186,0.0,0.0,96,0.01,,,0.01,meteobridge,2013-07-24 00:34:00,
2013-07-23 20:40:00,73.2,72.0,29.59,South,186,0.0,0.0,96,0.01,,,0.01,meteobridge,2013-07-24 00:40:00,
2013-07-23 20:45:00,73.0,71.8,29.59,South,186,0.0,0.0,96,0.01,,,0.01,meteobridge,2013-07-24 00:45:00,
2013-07-23 20:50:00,73.0,71.8,29.59,South,186,0.0,0.0,96,0.01,,,0.01,meteobridge,2013-07-24 00:50:00,
2013-07-23 20:55:00,72.9,71.6,29.59,South,186,0.0,0.0,96,0.01,,,0.01,meteobridge,2013-07-24 00:55:00,
2013-07-23 21:01:00,72.9,72.0,29.59,South,186,0.0,0.9,97,0.01,,,0.01,meteobridge,2013-07-24 01:01:00,
2013-07-23 21:06:00,72.7,71.8,29.60,South,186,0.0,0.0,97,0.01,,,0.01,meteobridge,2013-07-24 01:06:00,
2013-07-23 21:11:00,72.7,71.8,29.60,South,186,0.0,0.0,97,0.00,,,0.01,meteobridge,2013-07-24 01:11:00,
2013-07-23 21:16:00,72.7,71.8,29.61,South,186,0.0,0.0,97,0.00,,,0.01,meteobridge,2013-07-24 01:16:00,
2013-07-23 21:22:00,72.5,71.6,29.61,South,186,0.0,0.0,97,0.00,,,0.01,meteobridge,2013-07-24 01:22:00,
2013-07-23 21:27:00,72.5,72.0,29.61,South,186,0.0,2.0,98,0.00,,,0.01,meteobridge,2013-07-24 01:27:00,
2013-07-23 21:33:00,72.5,72.0,29.61,South,186,0.0,0.0,98,0.00,,,0.01,meteobridge,2013-07-24 01:33:00,
2013-07-23 21:38:00,72.5,72.0,29.61,South,186,0.0,0.0,98,0.00,,,0.01,meteobridge,2013-07-24 01:38:00,
2013-07-23 21:44:00,72.5,72.0,29.61,South,186,0.0,0.0,98,0.00,,,0.01,meteobridge,2013-07-24 01:44:00,
2013-07-23 21:49:00,72.3,71.8,29.61,South,186,0.0,0.0,98,0.00,,,0.01,meteobridge,2013-07-24 01:49:00,
2013-07-23 21:54:00,72.3,71.8,29.60,South,186,0.0,0.0,98,0.00,,,0.01,meteobridge,2013-07-24 01:54:00,
2013-07-23 22:00:00,72.3,71.4,29.61,South,186,0.0,0.9,97,0.00,,,0.01,meteobridge,2013-07-24 02:00:00,
2013-07-23 22:05:00,72.1,71.6,29.61,South,186,0.0,0.0,98,0.00,,,0.01,meteobridge,2013-07-24 02:05:00,
2013-07-23 22:10:00,72.1,71.6,29.61,South,186,0.0,0.0,98,0.00,,,0.01,meteobridge,2013-07-24 02:10:00,
2013-07-23 22:16:00,72.1,71.6,29.61,SSW,192,0.0,0.0,98,0.00,,,0.01,meteobridge,2013-07-24 02:16:00,
2013-07-23 22:21:00,72.1,71.6,29.61,SSW,192,0.0,0.0,98,0.00,,,0.01,meteobridge,2013-07-24 02:21:00,
2013-07-23 22:26:00,72.1,71.6,29.62,SSW,192,0.0,0.0,98,0.00,,,0.01,meteobridge,2013-07-24 02:26:00,
2013-07-23 22:31:00,72.1,71.6,29.62,SSW,192,0.0,0.0,98,0.01,,,0.02,meteobridge,2013-07-24 02:31:00,
2013-07-23 22:37:00,72.0,71.4,29.62,SSW,192,0.0,0.0,98,0.01,,,0.02,meteobridge,2013-07-24 02:37:00,
2013-07-23 22:43:00,72.0,71.4,29.62,SSW,192,0.0,0.0,98,0.01,,,0.02,meteobridge,2013-07-24 02:43:00,
2013-07-23 22:49:00,72.0,71.4,29.62,SSW,192,0.0,0.0,98,0.01,,,0.02,meteobridge,2013-07-24 02:49:00,
2013-07-23 22:54:00,72.0,71.4,29.63,SSW,192,0.9,0.9,98,0.01,,,0.02,meteobridge,2013-07-24 02:54:00,
2013-07-23 22:59:00,72.0,71.4,29.63,SSW,192,0.0,0.0,98,0.01,,,0.02,meteobridge,2013-07-24 02:59:00,
2013-07-23 23:05:00,72.1,71.6,29.63,SSW,192,0.0,0.0,98,0.01,,,0.02,meteobridge,2013-07-24 03:05:00,
2013-07-23 23:10:00,72.1,71.6,29.62,SSW,192,0.0,0.0,98,0.01,,,0.02,meteobridge,2013-07-24 03:10:00,
2013-07-23 23:15:00,72.1,71.6,29.62,SSW,192,0.0,0.0,98,0.01,,,0.02,meteobridge,2013-07-24 03:15:00,
2013-07-23 23:20:00,72.0,71.4,29.62,SSW,192,0.0,0.0,98,0.01,,,0.02,meteobridge,2013-07-24 03:20:00,
2013-07-23 23:25:00,72.0,71.4,29.62,SSW,192,0.0,0.0,98,0.01,,,0.02,meteobridge,2013-07-24 03:25:00,
2013-07-23 23:31:00,71.8,71.2,29.62,SSW,192,0.0,0.0,98,0.00,,,0.02,meteobridge,2013-07-24 03:31:00,
2013-07-23 23:36:00,71.6,71.1,29.61,SSW,192,0.0,0.9,98,0.00,,,0.02,meteobridge,2013-07-24 03:36:00,
2013-07-23 23:42:00,71.4,70.9,29.61,South,188,0.0,0.0,98,0.00,,,0.02,meteobridge,2013-07-24 03:42:00,
2013-07-23 23:48:00,71.2,70.7,29.61,South,188,0.0,0.0,98,0.00,,,0.02,meteobridge,2013-07-24 03:48:00,
2013-07-23 23:53:00,71.2,70.7,29.62,South,188,0.9,0.9,98,0.00,,,0.02,meteobridge,2013-07-24 03:53:00,
2013-07-23 23:58:00,71.2,70.7,29.62,SSW,205,0.0,0.0,98,0.00,,,0.02,meteobridge,2013-07-24 03:58:00,